JJA1056 RKSS-RKPC

Flight info

Callsign JJA1056
Flight time 0h 47m
Altitude 26000
Route BULTI Y711 DOTOL
Aircraft B738/M-SDE2E3FGHIRWXY/LB1

Departure

Time 2025-09-05 15:00
Airport Gimpo International Airport (RKSS)

Arrival

Time 2025-09-05 15:48
Airport Jeju International Airport (RKPC)
Time Latitude Longitude Altitude Speed Heading
2025-09-05 14:39 37.55720 126.79988 66 ft 0 kts 225°
2025-09-05 14:53 37.55716 126.79983 61 ft 2 kts 225°
2025-09-05 14:54 37.55669 126.79908 65 ft 9 kts 266°
2025-09-05 14:54 37.55768 126.79761 59 ft 14 kts 315°
2025-09-05 14:55 37.55926 126.79558 60 ft 19 kts 314°
2025-09-05 14:56 37.56299 126.79093 60 ft 31 kts 315°
2025-09-05 14:56 37.56457 126.78892 64 ft 34 kts 315°
2025-09-05 14:57 37.56925 126.78306 65 ft 29 kts 315°
2025-09-05 14:57 37.57064 126.78130 62 ft 27 kts 314°
2025-09-05 14:57 37.57134 126.77936 58 ft 13 kts 224°
2025-09-05 14:58 37.56971 126.77950 55 ft 15 kts 136°
2025-09-05 14:58 37.56822 126.78134 57 ft 19 kts 136°
2025-09-05 14:59 37.56071 126.79084 63 ft 138 kts 135°
2025-09-05 15:00 37.53520 126.82274 1719 ft 176 kts 139°
2025-09-05 15:00 37.51670 126.84588 2455 ft 218 kts 139°
2025-09-05 15:00 37.50461 126.86095 2705 ft 237 kts 141°
2025-09-05 15:01 37.47396 126.87716 3550 ft 256 kts 165°
2025-09-05 15:01 37.43931 126.89081 5027 ft 263 kts 165°
2025-09-05 15:02 37.40398 126.90488 5946 ft 269 kts 165°
2025-09-05 15:02 37.36868 126.91976 5994 ft 272 kts 156°
2025-09-05 15:03 37.33642 126.94668 7169 ft 281 kts 147°
2025-09-05 15:04 37.28815 126.98937 7986 ft 285 kts 148°
2025-09-05 15:04 37.25542 127.01752 7983 ft 285 kts 148°
2025-09-05 15:04 37.23816 127.02856 7987 ft 282 kts 169°
2025-09-05 15:05 37.19987 127.02336 9235 ft 280 kts 199°
2025-09-05 15:05 37.16237 127.00745 10362 ft 296 kts 200°
2025-09-05 15:06 37.12075 126.98959 10750 ft 333 kts 200°
2025-09-05 15:06 37.07606 126.97080 11814 ft 342 kts 200°
2025-09-05 15:07 37.03059 126.95189 13041 ft 348 kts 200°
2025-09-05 15:08 36.96060 126.92291 14688 ft 358 kts 200°
2025-09-05 15:08 36.93685 126.91310 15215 ft 361 kts 200°
2025-09-05 15:08 36.88873 126.89323 15892 ft 366 kts 200°
2025-09-05 15:09 36.81595 126.86324 15931 ft 367 kts 200°
2025-09-05 15:09 36.79171 126.85326 15930 ft 367 kts 200°
2025-09-05 15:10 36.74328 126.83338 15935 ft 368 kts 199°
2025-09-05 15:10 36.69161 126.82504 16760 ft 381 kts 181°
2025-09-05 15:11 36.63837 126.82765 17876 ft 385 kts 180°
2025-09-05 15:11 36.58438 126.83001 18768 ft 391 kts 180°
2025-09-05 15:12 36.52964 126.83203 19594 ft 396 kts 180°
2025-09-05 15:12 36.47427 126.83434 20442 ft 400 kts 180°
2025-09-05 15:13 36.41820 126.83667 21250 ft 406 kts 180°
2025-09-05 15:13 36.36158 126.83613 22044 ft 408 kts 187°
2025-09-05 15:14 36.30478 126.82943 22814 ft 413 kts 187°
2025-09-05 15:14 36.24728 126.82266 23545 ft 417 kts 187°
2025-09-05 15:15 36.18920 126.81620 24156 ft 421 kts 186°
2025-09-05 15:15 36.13108 126.80982 24770 ft 424 kts 186°
2025-09-05 15:16 36.01271 126.79693 25934 ft 430 kts 186°
2025-09-05 15:19 35.74439 126.76791 25954 ft 431 kts 186°
2025-09-05 15:21 35.50309 126.74202 25957 ft 436 kts 186°
2025-09-05 15:23 35.26197 126.71646 25961 ft 434 kts 186°
2025-09-05 15:25 35.02552 126.69150 25951 ft 409 kts 186°
2025-09-05 15:26 34.91217 126.67951 24736 ft 404 kts 186°
2025-09-05 15:26 34.85634 126.67363 23861 ft 401 kts 186°
2025-09-05 15:26 34.82852 126.67070 23395 ft 400 kts 186°
2025-09-05 15:27 34.77332 126.66489 22458 ft 396 kts 186°
2025-09-05 15:28 34.69189 126.65634 21158 ft 388 kts 186°
2025-09-05 15:28 34.63926 126.65084 20896 ft 367 kts 186°
2025-09-05 15:29 34.58847 126.64548 20470 ft 373 kts 186°
2025-09-05 15:29 34.53844 126.64015 20022 ft 375 kts 186°
2025-09-05 15:30 34.48691 126.63468 19496 ft 369 kts 186°
2025-09-05 15:30 34.43604 126.62928 18747 ft 366 kts 187°
2025-09-05 15:30 34.41070 126.62660 18341 ft 365 kts 187°
2025-09-05 15:31 34.36034 126.62126 17576 ft 360 kts 187°
2025-09-05 15:32 34.28620 126.61341 16436 ft 353 kts 187°
2025-09-05 15:32 34.23756 126.61030 15666 ft 352 kts 172°
2025-09-05 15:33 34.19052 126.62004 15008 ft 342 kts 195°
2025-09-05 15:33 34.14843 126.59310 14750 ft 349 kts 210°
2025-09-05 15:33 34.12630 126.57982 14219 ft 355 kts 206°
2025-09-05 15:34 34.05928 126.54371 13047 ft 346 kts 205°
2025-09-05 15:34 34.03745 126.53208 12709 ft 341 kts 205°
2025-09-05 15:35 33.99470 126.50917 12065 ft 332 kts 205°
2025-09-05 15:36 33.93256 126.47572 11138 ft 321 kts 205°
2025-09-05 15:36 33.89224 126.45401 10536 ft 315 kts 205°
2025-09-05 15:37 33.85255 126.43264 9936 ft 310 kts 205°
2025-09-05 15:37 33.81566 126.41282 9868 ft 286 kts 205°
2025-09-05 15:38 33.78039 126.39387 9470 ft 277 kts 205°
2025-09-05 15:38 33.74544 126.37511 8677 ft 274 kts 205°
2025-09-05 15:38 33.72805 126.36578 8262 ft 273 kts 204°
2025-09-05 15:39 33.69361 126.34732 7548 ft 269 kts 204°
2025-09-05 15:40 33.64231 126.31984 6777 ft 269 kts 204°
2025-09-05 15:40 33.60793 126.30145 6210 ft 270 kts 204°
2025-09-05 15:41 33.57367 126.28314 5677 ft 268 kts 204°
2025-09-05 15:41 33.53972 126.26501 5155 ft 266 kts 203°
2025-09-05 15:42 33.50615 126.24710 4646 ft 263 kts 203°
2025-09-05 15:42 33.47207 126.23335 4113 ft 257 kts 176°
2025-09-05 15:42 33.45523 126.23914 3874 ft 252 kts 147°
2025-09-05 15:43 33.43368 126.27077 3408 ft 246 kts 118°
2025-09-05 15:44 33.42961 126.32716 2759 ft 239 kts 67°
2025-09-05 15:44 33.44532 126.36196 2148 ft 237 kts 58°
2025-09-05 15:45 33.46208 126.39449 1574 ft 221 kts 59°
2025-09-05 15:45 33.47489 126.41957 1052 ft 200 kts 59°
2025-09-05 15:46 33.48787 126.44497 599 ft 174 kts 60°
2025-09-05 15:46 33.49979 126.46814 151 ft 154 kts 59°
2025-09-05 15:47 33.51008 126.48885 90 ft 16 kts 75°
2025-09-05 15:48 33.51044 126.49270 90 ft 12 kts 63°
2025-09-05 15:48 33.50953 126.49402 91 ft 10 kts 138°
2025-09-05 15:49 33.50874 126.49484 93 ft 6 kts 176°
2025-09-05 15:49 33.50826 126.49486 94 ft 1 kts 177°
2025-09-05 15:50 33.50819 126.49487 94 ft 0 kts 177°